Regional Weather Roundup
Issued by NWS

Home | Current Version | Previous Version | Graphics & Text | Print | Product List | Glossary On
Versions: 1 2 3 4 5 6 7 8 9 10 11 12 13 14 15 16 17 18 19 20 21 22 23 24 25 26 27 28 29 30 31 32 33 34 35 36 37 38 39 40 41 42 43 44 45 46 47 48 49 50
000
ASUS43 KFSD 012110
RWRSD

WEATHER ROUNDUP FOR SOUTH DAKOTA
NATIONAL WEATHER SERVICE SIOUX FALLS SD
300 PM CST SUN FEB 01 2015

NOTE: "FAIR" INDICATES FEW OR NO CLOUDS BELOW 12,000 FEET WITH NO
SIGNIFICANT WEATHER AND/OR OBSTRUCTIONS TO VISIBILITY.


SDZ001>005-009-010-012>017-012200-
NORTHWEST AND NORTH CENTRAL SOUTH DAKOTA

CITY           SKY/WX    TMP DP  RH WIND       PRES   REMARKS
BUFFALO          N/A     12   5  73 W7        30.19F WCI   1
FAITH            N/A      8  -2  63 NW10      30.31F WCI  -6
MOBRIDGE       SUNNY      5 -10  50 N10       30.38F WCI -10
$$

SDZ012>016-024>037-041>051-057-063-072>074-012200-
SOUTHWEST AND SOUTH CENTRAL SOUTH DAKOTA

CITY           SKY/WX    TMP DP  RH WIND       PRES   REMARKS
RAPID CTY ARPT SUNNY     13   7  77 N9        30.27F WCI   1
PIERRE         SUNNY      5  -4  66 NW14      30.40F WCI -12
CUSTER         SUNNY     19   4  51 VRB5      30.06F WCI  12
ELLSWORTH AFB  SUNNY     13   6  72 N15       30.26F WCI  -2
PHILIP         MOSUNNY   11   0  61 NW15      30.38F WCI  -5
PINE RIDGE     SUNNY     12   2  64 NW12      30.29F WCI  -2
WINNER         FAIR       4  -4  69 NW20      30.36S WCI -17
$$

SDZ004>011-016>023-039-040-012200-
NORTHEAST SOUTH DAKOTA

CITY           SKY/WX    TMP DP  RH WIND       PRES   REMARKS
ABERDEEN       SUNNY      7  -7  52 N13       30.41F WCI  -9
WATERTOWN      PTSUNNY    7  -1  70 N18       30.28F WCI -12
SISSETON         N/A      7  -8  50 N20       30.37F WCI -13
$$

SDZ017-020-022-023-036>040-048>070-012200-
SOUTHEAST SOUTH DAKOTA

CITY           SKY/WX    TMP DP  RH WIND       PRES   REMARKS
SIOUX FALLS    CLOUDY     8   1  73 N22       30.25R WCI -12
HURON          SUNNY      5  -6  60 N21G28    30.39S WCI -16
CHAMBERLAIN    SUNNY      3  -5  70 N17G25    30.38S WCI -17
MITCHELL       CLOUDY     5  -2  72 N20G30    30.37S BLWGSNOWWCI -15
YANKTON        PTSUNNY  N/A N/A N/A NW25      30.31R
$$

ABBREVIATIONS USED IN REMARKS
   TC - TEMPERATURE IN CELSIUS
  WCI - WIND CHILL INDEX
   HX - HEAT INDEX
  VSB - VISIBILITY




USA.gov is the U.S. government's official web portal to all federal, state and local government web resources and services.